Darstellungsparameter: Aktuell verwendete Einstellungen:
Skalierung der Graphiken ... ?
xyx+y,   Skalierungsfaktor:      Skalierung: Modus: x, Faktor: 1
Darstellungszeitraum ... ?
Vom - - bis: - -   Zeitraum: 26.08.2020 - 26.08.2020
Min/Max/Avg-Anzeige ... ?
Zeige MMA aktuell
Zeige MMA Monat
Zeige MMA alles
Zeige --A aktuell
Zeige --A Monat
Zeige --A alles
Keine MMA-Anzeige
MMA:
Average (ber die Originaldaten)
MMA-Basis: 26.08.2020 - 26.08.2020
Quicknavigation für Darstellung... ?
Tage:      1T, 2T, 3T, 5T -1T -2T -3T -5T +1T +2T +3T +5T
Wochen: 1W, 2W, 3W -1W -2W -3W +1W +2W +3W
Monate: 1M, 3M, 6M -1M -3M -6M +1M +3M +6M
Jahre:    1J, 3J, 5J, 10J -1J -3J -5J -10J +1J +3J +5J +10J
Nutze für die Darstellung ... ?
Originaldaten oder Mittelwerte auf ...
Stundenbasis Tagesbasis Wochenbasis
Monatsbasis Jahresbasis      Datenbasis: Original-Daten
Darstellen als:
Statistik (Auto) Statistik J:M      Darstellung:
Zur Graphik,    zurück zur Übersicht aller Sensoren.
 
Tabellarische Datenbersicht: ?
 
Sensor: Nr:Datum:Temp:Abs-Feuchte:Windchill:Wind:
Aussen-T/F 1 26-08-2020 00:00:00 20.6 C 10.74 g/m*3 20.6 C 0 km/h
2 26-08-2020 00:05:00 20.6 C 10.56 g/m*3 20.6 C 12.9 km/h
3 26-08-2020 00:10:00 20.6 C 10.74 g/m*3 20.6 C 1.6 km/h
4 26-08-2020 00:15:00 20.7 C 10.62 g/m*3 20.7 C 8.1 km/h
5 26-08-2020 00:20:00 21.1 C 10.87 g/m*3 21.1 C 6.4 km/h
6 26-08-2020 00:25:00 21.2 C 10.93 g/m*3 21.2 C 8.1 km/h
7 26-08-2020 00:30:00 21.3 C 11.18 g/m*3 21.3 C 6.4 km/h
8 26-08-2020 00:35:00 21.3 C 11 g/m*3 21.3 C 4.8 km/h
9 26-08-2020 00:40:00 21.3 C 11.37 g/m*3 21.3 C 6.4 km/h
10 26-08-2020 00:45:00 21.3 C 11.18 g/m*3 21.3 C 3.2 km/h
11 26-08-2020 00:50:00 21.2 C 11.3 g/m*3 21.2 C 4.8 km/h
12 26-08-2020 00:55:00 21.2 C 11.68 g/m*3 21.2 C 3.2 km/h
13 26-08-2020 01:00:00 21.1 C 11.61 g/m*3 21.1 C 4.8 km/h
14 26-08-2020 01:05:00 21 C 11.54 g/m*3 21 C 3.2 km/h
15 26-08-2020 01:10:00 21 C 11.54 g/m*3 21 C 6.4 km/h
16 26-08-2020 01:15:00 21.1 C 11.61 g/m*3 21.1 C 11.3 km/h
17 26-08-2020 01:20:00 21.2 C 11.68 g/m*3 21.2 C 3.2 km/h
18 26-08-2020 01:25:00 21.3 C 11.74 g/m*3 21.3 C 3.2 km/h
19 26-08-2020 01:30:00 21.3 C 11.93 g/m*3 21.3 C 3.2 km/h
20 26-08-2020 01:35:00 21.2 C 11.86 g/m*3 21.2 C 11.3 km/h
21 26-08-2020 01:40:00 21.4 C 12.19 g/m*3 21.4 C 12.9 km/h
22 26-08-2020 01:45:00 21.8 C 12.28 g/m*3 21.8 C 14.5 km/h
23 26-08-2020 01:50:00 22.2 C 12.57 g/m*3 22.2 C 16.1 km/h
24 26-08-2020 01:55:00 22.3 C 12.44 g/m*3 22.3 C 8.1 km/h
25 26-08-2020 02:00:00 22.4 C 12.51 g/m*3 22.4 C 11.3 km/h
Sensor: Nr:Datum:Temp:Abs-Feuchte:Windchill:Wind:
Aussen-T/F 26 26-08-2020 02:05:00 22.5 C 12.58 g/m*3 22.5 C 9.7 km/h
27 26-08-2020 02:10:00 22.5 C 12.58 g/m*3 22.5 C 19.3 km/h
28 26-08-2020 02:15:00 22.6 C 12.66 g/m*3 22.6 C 19.3 km/h
29 26-08-2020 02:20:00 22.5 C 12.58 g/m*3 22.5 C 8.1 km/h
30 26-08-2020 02:25:00 22.5 C 12.58 g/m*3 22.5 C 12.9 km/h
31 26-08-2020 02:30:00 22.6 C 12.66 g/m*3 22.6 C 11.3 km/h
32 26-08-2020 02:35:00 22.6 C 12.46 g/m*3 22.6 C 14.5 km/h
33 26-08-2020 02:40:00 22.4 C 12.31 g/m*3 22.4 C 9.7 km/h
34 26-08-2020 02:45:00 22.4 C 12.51 g/m*3 22.4 C 27.4 km/h
35 26-08-2020 02:50:00 22.4 C 12.51 g/m*3 22.4 C 29 km/h
36 26-08-2020 02:55:00 22.5 C 12.58 g/m*3 22.5 C 29 km/h
37 26-08-2020 03:00:00 22.4 C 12.51 g/m*3 22.4 C 25.7 km/h
38 26-08-2020 03:05:00 22.3 C 12.44 g/m*3 22.3 C 22.5 km/h
39 26-08-2020 03:10:00 22.3 C 12.44 g/m*3 22.3 C 25.7 km/h
40 26-08-2020 03:15:00 22.2 C 12.37 g/m*3 22.2 C 27.4 km/h
41 26-08-2020 03:20:00 22.1 C 12.49 g/m*3 22.1 C 27.4 km/h
42 26-08-2020 03:25:00 21.9 C 12.35 g/m*3 21.9 C 17.7 km/h
43 26-08-2020 03:30:00 21.8 C 12.28 g/m*3 21.8 C 20.9 km/h
44 26-08-2020 03:35:00 21.7 C 12.21 g/m*3 21.7 C 24.1 km/h
45 26-08-2020 03:40:00 21.6 C 11.76 g/m*3 21.6 C 35.4 km/h
46 26-08-2020 03:45:00 21.5 C 11.69 g/m*3 21.5 C 20.9 km/h
47 26-08-2020 03:50:00 21.3 C 11.74 g/m*3 21.3 C 17.7 km/h
48 26-08-2020 03:55:00 21.2 C 11.86 g/m*3 21.2 C 14.5 km/h
49 26-08-2020 04:00:00 21 C 11.72 g/m*3 21 C 19.3 km/h
50 26-08-2020 04:05:00 20.9 C 11.47 g/m*3 20.9 C 20.9 km/h
Sensor: Nr:Datum:Temp:Abs-Feuchte:Windchill:Wind:
Aussen-T/F 51 26-08-2020 04:10:00 20.8 C 11.41 g/m*3 20.8 C 19.3 km/h
52 26-08-2020 04:15:00 20.7 C 11.34 g/m*3 20.7 C 25.7 km/h
53 26-08-2020 04:20:00 20.7 C 11.16 g/m*3 20.7 C 20.9 km/h
54 26-08-2020 04:25:00 20.6 C 11.1 g/m*3 20.6 C 25.7 km/h
55 26-08-2020 04:30:00 20.5 C 11.03 g/m*3 20.5 C 16.1 km/h
56 26-08-2020 04:35:00 20.4 C 11.14 g/m*3 20.4 C 16.1 km/h
57 26-08-2020 04:40:00 20.3 C 10.73 g/m*3 20.3 C 25.7 km/h
58 26-08-2020 04:45:00 20.4 C 10.61 g/m*3 20.4 C 24.1 km/h
59 26-08-2020 04:50:00 20.4 C 10.44 g/m*3 20.4 C 20.9 km/h
60 26-08-2020 04:55:00 20.4 C 10.26 g/m*3 20.4 C 25.7 km/h
61 26-08-2020 05:00:00 20.3 C 10.2 g/m*3 20.3 C 25.7 km/h
62 26-08-2020 05:05:00 20.3 C 10.38 g/m*3 20.3 C 12.9 km/h
63 26-08-2020 05:10:00 20.2 C 10.32 g/m*3 20.2 C 16.1 km/h
64 26-08-2020 05:15:00 20.2 C 10.32 g/m*3 20.2 C 19.3 km/h
65 26-08-2020 05:20:00 20.2 C 10.32 g/m*3 20.2 C 22.5 km/h
66 26-08-2020 05:25:00 20.1 C 10.08 g/m*3 20.1 C 24.1 km/h
67 26-08-2020 05:30:00 20.1 C 10.08 g/m*3 20.1 C 20.9 km/h
68 26-08-2020 05:35:00 20.1 C 10.26 g/m*3 20.1 C 20.9 km/h
69 26-08-2020 05:40:00 19.9 C 9.79 g/m*3 19.9 C 27.4 km/h
70 26-08-2020 05:45:00 19.9 C 9.79 g/m*3 19.9 C 37 km/h
71 26-08-2020 05:50:00 19.8 C 9.74 g/m*3 19.8 C 22.5 km/h
72 26-08-2020 05:55:00 19.8 C 9.91 g/m*3 19.8 C 20.9 km/h
73 26-08-2020 06:00:00 19.8 C 9.74 g/m*3 19.8 C 25.7 km/h
74 26-08-2020 06:05:00 19.7 C 9.85 g/m*3 19.7 C 19.3 km/h
75 26-08-2020 06:10:00 19.7 C 9.68 g/m*3 19.7 C 25.7 km/h
Sensor: Nr:Datum:Temp:Abs-Feuchte:Windchill:Wind:
Aussen-T/F 76 26-08-2020 06:15:00 19.7 C 9.68 g/m*3 19.7 C 24.1 km/h
77 26-08-2020 06:20:00 19.7 C 9.51 g/m*3 19.7 C 35.4 km/h
78 26-08-2020 06:25:00 19.7 C 9.68 g/m*3 19.7 C 25.7 km/h
79 26-08-2020 06:30:00 19.6 C 9.62 g/m*3 19.6 C 24.1 km/h
80 26-08-2020 06:35:00 19.6 C 9.79 g/m*3 19.6 C 19.3 km/h
81 26-08-2020 06:40:00 19.5 C 9.73 g/m*3 19.5 C 16.1 km/h
82 26-08-2020 06:45:00 19.4 C 9.84 g/m*3 19.4 C 16.1 km/h
83 26-08-2020 06:50:00 19.3 C 9.79 g/m*3 19.3 C 12.9 km/h
84 26-08-2020 06:55:00 19.3 C 9.95 g/m*3 19.3 C 14.5 km/h
85 26-08-2020 07:00:00 19.3 C 9.95 g/m*3 19.3 C 17.7 km/h
86 26-08-2020 07:05:00 19.2 C 9.89 g/m*3 19.2 C 19.3 km/h
87 26-08-2020 07:10:00 19.2 C 9.56 g/m*3 19.2 C 24.1 km/h
88 26-08-2020 07:15:00 19.2 C 9.56 g/m*3 19.2 C 17.7 km/h
89 26-08-2020 07:20:00 19.2 C 9.4 g/m*3 19.2 C 19.3 km/h
90 26-08-2020 07:25:00 19.2 C 9.4 g/m*3 19.2 C 27.4 km/h
91 26-08-2020 07:30:00 19.3 C 9.45 g/m*3 19.3 C 22.5 km/h
92 26-08-2020 07:35:00 19.2 C 9.56 g/m*3 19.2 C 20.9 km/h
93 26-08-2020 07:40:00 19.2 C 9.56 g/m*3 19.2 C 19.3 km/h
94 26-08-2020 07:45:00 19.2 C 9.56 g/m*3 19.2 C 22.5 km/h
95 26-08-2020 07:50:00 19.3 C 9.79 g/m*3 19.3 C 14.5 km/h
96 26-08-2020 07:55:00 19.2 C 9.56 g/m*3 19.2 C 20.9 km/h
97 26-08-2020 08:00:00 19.2 C 9.73 g/m*3 19.2 C 17.7 km/h
98 26-08-2020 08:05:00 19.2 C 9.56 g/m*3 19.2 C 19.3 km/h
99 26-08-2020 08:10:00 19.3 C 9.79 g/m*3 19.3 C 20.9 km/h
100 26-08-2020 08:15:00 19.2 C 9.73 g/m*3 19.2 C 19.3 km/h
Sensor: Nr:Datum:Temp:Abs-Feuchte:Windchill:Wind:
Aussen-T/F 101 26-08-2020 08:20:00 19.3 C 9.95 g/m*3 19.3 C 9.7 km/h
102 26-08-2020 08:25:00 19.3 C 9.79 g/m*3 19.3 C 19.3 km/h
103 26-08-2020 08:30:00 19.3 C 9.62 g/m*3 19.3 C 20.9 km/h
104 26-08-2020 08:35:00 19.3 C 9.79 g/m*3 19.3 C 16.1 km/h
105 26-08-2020 08:40:00 19.3 C 9.79 g/m*3 19.3 C 29 km/h
106 26-08-2020 08:45:00 19.4 C 9.84 g/m*3 19.4 C 20.9 km/h
107 26-08-2020 08:50:00 19.4 C 9.84 g/m*3 19.4 C 17.7 km/h
108 26-08-2020 08:55:00 19.4 C 9.84 g/m*3 19.4 C 22.5 km/h
109 26-08-2020 09:00:00 19.4 C 9.84 g/m*3 19.4 C 22.5 km/h
110 26-08-2020 09:05:00 19.4 C 10.01 g/m*3 19.4 C 14.5 km/h
111 26-08-2020 09:10:00 19.3 C 9.95 g/m*3 19.3 C 12.9 km/h
112 26-08-2020 09:15:00 19.3 C 9.95 g/m*3 19.3 C 16.1 km/h
113 26-08-2020 09:20:00 19.3 C 9.95 g/m*3 19.3 C 19.3 km/h
114 26-08-2020 09:25:00 19.4 C 10.01 g/m*3 19.4 C 22.5 km/h
115 26-08-2020 09:30:00 19.5 C 9.9 g/m*3 19.5 C 27.4 km/h
116 26-08-2020 09:35:00 19.5 C 10.07 g/m*3 19.5 C 14.5 km/h
117 26-08-2020 09:40:00 19.6 C 10.13 g/m*3 19.6 C 12.9 km/h
118 26-08-2020 09:45:00 19.5 C 10.07 g/m*3 19.5 C 19.3 km/h
119 26-08-2020 09:50:00 19.4 C 10.01 g/m*3 19.4 C 19.3 km/h
120 26-08-2020 09:55:00 19.4 C 10.01 g/m*3 19.4 C 17.7 km/h
121 26-08-2020 10:00:00 19.5 C 10.07 g/m*3 19.5 C 16.1 km/h
122 26-08-2020 10:05:00 19.5 C 10.07 g/m*3 19.5 C 19.3 km/h
123 26-08-2020 10:10:00 19.5 C 10.07 g/m*3 19.5 C 17.7 km/h
124 26-08-2020 10:15:00 19.6 C 10.13 g/m*3 19.6 C 14.5 km/h
125 26-08-2020 10:20:00 19.6 C 10.3 g/m*3 19.6 C 17.7 km/h
Sensor: Nr:Datum:Temp:Abs-Feuchte:Windchill:Wind:
Aussen-T/F 126 26-08-2020 10:25:00 19.6 C 10.13 g/m*3 19.6 C 12.9 km/h
127 26-08-2020 10:30:00 19.6 C 10.13 g/m*3 19.6 C 14.5 km/h
128 26-08-2020 10:35:00 19.6 C 10.13 g/m*3 19.6 C 17.7 km/h
129 26-08-2020 10:40:00 19.6 C 10.3 g/m*3 19.6 C 17.7 km/h
130 26-08-2020 10:45:00 19.5 C 10.07 g/m*3 19.5 C 20.9 km/h
131 26-08-2020 10:50:00 19.5 C 10.24 g/m*3 19.5 C 24.1 km/h
132 26-08-2020 10:55:00 19.5 C 10.07 g/m*3 19.5 C 20.9 km/h
133 26-08-2020 11:00:00 19.5 C 10.24 g/m*3 19.5 C 16.1 km/h
134 26-08-2020 11:05:00 19.4 C 10.01 g/m*3 19.4 C 14.5 km/h
135 26-08-2020 11:10:00 19.4 C 10.01 g/m*3 19.4 C 25.7 km/h
136 26-08-2020 11:15:00 19.5 C 10.07 g/m*3 19.5 C 17.7 km/h
137 26-08-2020 11:20:00 19.5 C 10.07 g/m*3 19.5 C 29 km/h
138 26-08-2020 11:25:00 19.6 C 10.13 g/m*3 19.6 C 19.3 km/h
139 26-08-2020 11:30:00 19.7 C 10.02 g/m*3 19.7 C 20.9 km/h
140 26-08-2020 11:35:00 19.8 C 10.08 g/m*3 19.8 C 14.5 km/h
141 26-08-2020 11:40:00 20 C 10.2 g/m*3 20 C 17.7 km/h
142 26-08-2020 11:45:00 20.1 C 10.26 g/m*3 20.1 C 20.9 km/h
143 26-08-2020 11:50:00 20.2 C 10.32 g/m*3 20.2 C 20.9 km/h
144 26-08-2020 11:55:00 20.2 C 9.97 g/m*3 20.2 C 27.4 km/h
145 26-08-2020 12:00:00 20.2 C 10.14 g/m*3 20.2 C 19.3 km/h
146 26-08-2020 12:05:00 20.2 C 10.32 g/m*3 20.2 C 22.5 km/h
147 26-08-2020 12:10:00 20.2 C 10.49 g/m*3 20.2 C 20.9 km/h
148 26-08-2020 12:15:00 20.2 C 10.49 g/m*3 20.2 C 19.3 km/h
149 26-08-2020 12:20:00 20.2 C 10.49 g/m*3 20.2 C 19.3 km/h
150 26-08-2020 12:25:00 20.1 C 10.6 g/m*3 20.1 C 30.6 km/h
Sensor: Nr:Datum:Temp:Abs-Feuchte:Windchill:Wind:
Aussen-T/F 151 26-08-2020 12:30:00 20 C 10.54 g/m*3 20 C 12.9 km/h
152 26-08-2020 12:35:00 19.9 C 10.65 g/m*3 19.9 C 14.5 km/h
153 26-08-2020 12:40:00 20.1 C 10.78 g/m*3 20.1 C 16.1 km/h
154 26-08-2020 12:45:00 20.1 C 10.78 g/m*3 20.1 C 20.9 km/h
155 26-08-2020 12:50:00 20.2 C 10.67 g/m*3 20.2 C 19.3 km/h
156 26-08-2020 12:55:00 20.2 C 10.84 g/m*3 20.2 C 20.9 km/h
157 26-08-2020 13:00:00 20.2 C 10.84 g/m*3 20.2 C 25.7 km/h
158 26-08-2020 13:05:00 20.4 C 10.97 g/m*3 20.4 C 12.9 km/h
159 26-08-2020 13:10:00 20.7 C 10.98 g/m*3 20.7 C 19.3 km/h
160 26-08-2020 13:15:00 20.8 C 10.86 g/m*3 20.8 C 20.9 km/h
161 26-08-2020 13:20:00 20.8 C 10.86 g/m*3 20.8 C 24.1 km/h
162 26-08-2020 13:25:00 20.7 C 10.8 g/m*3 20.7 C 17.7 km/h
163 26-08-2020 13:30:00 21 C 10.99 g/m*3 21 C 20.9 km/h
164 26-08-2020 13:35:00 21.3 C 11 g/m*3 21.3 C 29 km/h
165 26-08-2020 13:40:00 21.6 C 10.81 g/m*3 21.6 C 24.1 km/h
166 26-08-2020 13:45:00 21.6 C 10.62 g/m*3 21.6 C 22.5 km/h
167 26-08-2020 13:50:00 21.6 C 10.81 g/m*3 21.6 C 24.1 km/h
168 26-08-2020 13:55:00 21.6 C 10.81 g/m*3 21.6 C 20.9 km/h
169 26-08-2020 14:00:00 21.6 C 10.62 g/m*3 21.6 C 22.5 km/h
170 26-08-2020 14:05:00 21.5 C 10.56 g/m*3 21.5 C 22.5 km/h
171 26-08-2020 14:10:00 21.4 C 10.69 g/m*3 21.4 C 17.7 km/h
172 26-08-2020 14:15:00 21.5 C 10.56 g/m*3 21.5 C 20.9 km/h
173 26-08-2020 14:20:00 21.6 C 10.62 g/m*3 21.6 C 20.9 km/h
174 26-08-2020 14:25:00 21.6 C 10.24 g/m*3 21.6 C 22.5 km/h
175 26-08-2020 14:30:00 21.7 C 10.49 g/m*3 21.7 C 17.7 km/h
Sensor: Nr:Datum:Temp:Abs-Feuchte:Windchill:Wind:
Aussen-T/F 176 26-08-2020 14:35:00 21.8 C 10.74 g/m*3 21.8 C 19.3 km/h
177 26-08-2020 14:40:00 21.9 C 10.42 g/m*3 21.9 C 20.9 km/h
178 26-08-2020 14:45:00 21.9 C 10.42 g/m*3 21.9 C 14.5 km/h
179 26-08-2020 14:50:00 21.8 C 10.55 g/m*3 21.8 C 16.1 km/h
180 26-08-2020 14:55:00 21.8 C 10.17 g/m*3 21.8 C 37 km/h
181 26-08-2020 15:00:00 21.8 C 10.17 g/m*3 21.8 C 20.9 km/h
182 26-08-2020 15:05:00 21.9 C 10.23 g/m*3 21.9 C 22.5 km/h
183 26-08-2020 15:10:00 22.1 C 10.54 g/m*3 22.1 C 19.3 km/h
184 26-08-2020 15:15:00 22.2 C 10.41 g/m*3 22.2 C 20.9 km/h
185 26-08-2020 15:20:00 22.1 C 10.35 g/m*3 22.1 C 19.3 km/h
186 26-08-2020 15:25:00 22.2 C 10.41 g/m*3 22.2 C 22.5 km/h
187 26-08-2020 15:30:00 22.5 C 10.39 g/m*3 22.5 C 24.1 km/h
188 26-08-2020 15:35:00 22.7 C 10.3 g/m*3 22.7 C 22.5 km/h
189 26-08-2020 15:40:00 22.8 C 10.57 g/m*3 22.8 C 22.5 km/h
190 26-08-2020 15:45:00 23.2 C 10.6 g/m*3 23.2 C 20.9 km/h
191 26-08-2020 15:50:00 23.2 C 10.39 g/m*3 23.2 C 16.1 km/h
192 26-08-2020 15:55:00 23.2 C 10.19 g/m*3 23.2 C 22.5 km/h
193 26-08-2020 16:00:00 23 C 10.28 g/m*3 23 C 19.3 km/h
194 26-08-2020 16:05:00 22.8 C 10.36 g/m*3 22.8 C 19.3 km/h
195 26-08-2020 16:10:00 22.8 C 10.16 g/m*3 22.8 C 33.8 km/h
196 26-08-2020 16:15:00 22.8 C 10.16 g/m*3 22.8 C 33.8 km/h
197 26-08-2020 16:20:00 22.9 C 10.22 g/m*3 22.9 C 29 km/h
198 26-08-2020 16:25:00 22.8 C 10.16 g/m*3 22.8 C 35.4 km/h
199 26-08-2020 16:30:00 22.7 C 10.3 g/m*3 22.7 C 30.6 km/h
200 26-08-2020 16:35:00 23 C 10.28 g/m*3 23 C 29 km/h
Sensor: Nr:Datum:Temp:Abs-Feuchte:Windchill:Wind:
Aussen-T/F 201 26-08-2020 16:40:00 23.4 C 10.09 g/m*3 23.4 C 24.1 km/h
202 26-08-2020 16:45:00 23.3 C 10.25 g/m*3 23.3 C 27.4 km/h
203 26-08-2020 16:50:00 23.1 C 10.13 g/m*3 23.1 C 24.1 km/h
204 26-08-2020 16:55:00 22.9 C 10.42 g/m*3 22.9 C 17.7 km/h
205 26-08-2020 17:00:00 22.8 C 10.36 g/m*3 22.8 C 16.1 km/h
206 26-08-2020 17:05:00 22.8 C 10.36 g/m*3 22.8 C 20.9 km/h
207 26-08-2020 17:10:00 22.8 C 10.16 g/m*3 22.8 C 19.3 km/h
208 26-08-2020 17:15:00 22.8 C 10.36 g/m*3 22.8 C 17.7 km/h
209 26-08-2020 17:20:00 22.7 C 10.1 g/m*3 22.7 C 24.1 km/h
210 26-08-2020 17:25:00 22.7 C 10.1 g/m*3 22.7 C 22.5 km/h
211 26-08-2020 17:30:00 22.7 C 10.3 g/m*3 22.7 C 20.9 km/h
212 26-08-2020 17:35:00 22.7 C 10.1 g/m*3 22.7 C 17.7 km/h
213 26-08-2020 17:40:00 22.7 C 10.1 g/m*3 22.7 C 19.3 km/h
214 26-08-2020 17:45:00 22.6 C 10.04 g/m*3 22.6 C 25.7 km/h
215 26-08-2020 17:50:00 22.6 C 10.04 g/m*3 22.6 C 19.3 km/h
216 26-08-2020 17:55:00 22.6 C 10.25 g/m*3 22.6 C 19.3 km/h
217 26-08-2020 18:00:00 22.6 C 10.25 g/m*3 22.6 C 19.3 km/h
218 26-08-2020 18:05:00 22.5 C 10.19 g/m*3 22.5 C 19.3 km/h
219 26-08-2020 18:10:00 22.6 C 10.25 g/m*3 22.6 C 19.3 km/h
220 26-08-2020 18:15:00 22.6 C 10.25 g/m*3 22.6 C 19.3 km/h
221 26-08-2020 18:20:00 22.5 C 9.99 g/m*3 22.5 C 25.7 km/h
222 26-08-2020 18:25:00 22.4 C 10.13 g/m*3 22.4 C 20.9 km/h
223 26-08-2020 18:30:00 22.3 C 10.27 g/m*3 22.3 C 16.1 km/h
224 26-08-2020 18:35:00 22.3 C 10.27 g/m*3 22.3 C 19.3 km/h
225 26-08-2020 18:40:00 22.2 C 10.21 g/m*3 22.2 C 19.3 km/h
Sensor: Nr:Datum:Temp:Abs-Feuchte:Windchill:Wind:
Aussen-T/F 226 26-08-2020 18:45:00 22.1 C 10.15 g/m*3 22.1 C 19.3 km/h
227 26-08-2020 18:50:00 22.1 C 10.15 g/m*3 22.1 C 19.3 km/h
228 26-08-2020 18:55:00 22 C 10.09 g/m*3 22 C 16.1 km/h
229 26-08-2020 19:00:00 21.9 C 10.23 g/m*3 21.9 C 17.7 km/h
230 26-08-2020 19:05:00 21.9 C 10.23 g/m*3 21.9 C 16.1 km/h
231 26-08-2020 19:10:00 21.8 C 10.17 g/m*3 21.8 C 16.1 km/h
232 26-08-2020 19:15:00 21.7 C 10.3 g/m*3 21.7 C 14.5 km/h
233 26-08-2020 19:20:00 21.6 C 10.24 g/m*3 21.6 C 17.7 km/h
234 26-08-2020 19:25:00 21.6 C 10.43 g/m*3 21.6 C 12.9 km/h
235 26-08-2020 19:30:00 21.5 C 10.37 g/m*3 21.5 C 16.1 km/h
236 26-08-2020 19:35:00 21.4 C 10.31 g/m*3 21.4 C 12.9 km/h
237 26-08-2020 19:40:00 21.3 C 10.44 g/m*3 21.3 C 11.3 km/h
238 26-08-2020 19:45:00 21.3 C 10.44 g/m*3 21.3 C 14.5 km/h
239 26-08-2020 19:50:00 21.2 C 10.56 g/m*3 21.2 C 12.9 km/h
240 26-08-2020 19:55:00 21.1 C 10.5 g/m*3 21.1 C 14.5 km/h
241 26-08-2020 20:00:00 21 C 10.62 g/m*3 21 C 14.5 km/h
242 26-08-2020 20:05:00 20.9 C 10.56 g/m*3 20.9 C 19.3 km/h
243 26-08-2020 20:10:00 20.8 C 10.5 g/m*3 20.8 C 19.3 km/h
244 26-08-2020 20:15:00 20.8 C 10.68 g/m*3 20.8 C 22.5 km/h
245 26-08-2020 20:20:00 20.7 C 10.62 g/m*3 20.7 C 17.7 km/h
246 26-08-2020 20:25:00 20.7 C 10.8 g/m*3 20.7 C 11.3 km/h
247 26-08-2020 20:30:00 20.6 C 10.74 g/m*3 20.6 C 9.7 km/h
248 26-08-2020 20:35:00 20.6 C 10.74 g/m*3 20.6 C 12.9 km/h
249 26-08-2020 20:40:00 20.4 C 10.61 g/m*3 20.4 C 11.3 km/h
250 26-08-2020 20:45:00 20.3 C 10.55 g/m*3 20.3 C 19.3 km/h
Sensor: Nr:Datum:Temp:Abs-Feuchte:Windchill:Wind:
Aussen-T/F 251 26-08-2020 20:50:00 20.3 C 10.73 g/m*3 20.3 C 17.7 km/h
252 26-08-2020 20:55:00 20.2 C 10.67 g/m*3 20.2 C 16.1 km/h
253 26-08-2020 21:00:00 20.2 C 10.84 g/m*3 20.2 C 12.9 km/h
254 26-08-2020 21:05:00 20.1 C 10.78 g/m*3 20.1 C 22.5 km/h
255 26-08-2020 21:10:00 20 C 10.54 g/m*3 20 C 11.3 km/h
256 26-08-2020 21:15:00 19.9 C 10.48 g/m*3 19.9 C 16.1 km/h
257 26-08-2020 21:20:00 19.9 C 10.48 g/m*3 19.9 C 12.9 km/h
258 26-08-2020 21:25:00 19.9 C 10.48 g/m*3 19.9 C 16.1 km/h
259 26-08-2020 21:30:00 19.9 C 10.48 g/m*3 19.9 C 17.7 km/h
260 26-08-2020 21:35:00 19.9 C 10.48 g/m*3 19.9 C 14.5 km/h
261 26-08-2020 21:40:00 19.9 C 10.65 g/m*3 19.9 C 9.7 km/h
262 26-08-2020 21:45:00 19.9 C 10.65 g/m*3 19.9 C 8.1 km/h
263 26-08-2020 21:50:00 19.8 C 10.59 g/m*3 19.8 C 12.9 km/h
264 26-08-2020 21:55:00 19.8 C 10.59 g/m*3 19.8 C 11.3 km/h
265 26-08-2020 22:00:00 19.7 C 10.53 g/m*3 19.7 C 11.3 km/h
266 26-08-2020 22:05:00 19.7 C 10.53 g/m*3 19.7 C 11.3 km/h
267 26-08-2020 22:10:00 19.6 C 10.47 g/m*3 19.6 C 11.3 km/h
268 26-08-2020 22:15:00 19.6 C 10.64 g/m*3 19.6 C 8.1 km/h
269 26-08-2020 22:20:00 19.6 C 10.64 g/m*3 19.6 C 0 km/h
270 26-08-2020 22:25:00 19.4 C 10.51 g/m*3 19.4 C 4.8 km/h
271 26-08-2020 22:30:00 19.3 C 10.45 g/m*3 19.3 C 12.9 km/h
272 26-08-2020 22:35:00 19.3 C 10.62 g/m*3 19.3 C 6.4 km/h
273 26-08-2020 22:40:00 19.3 C 10.62 g/m*3 19.3 C 4.8 km/h
274 26-08-2020 22:45:00 19.2 C 10.55 g/m*3 19.2 C 1.6 km/h
275 26-08-2020 22:50:00 19.2 C 10.72 g/m*3 19.2 C 8.1 km/h
Sensor: Nr:Datum:Temp:Abs-Feuchte:Windchill:Wind:
Aussen-T/F 276 26-08-2020 22:55:00 19.1 C 10.66 g/m*3 19.1 C 3.2 km/h
277 26-08-2020 23:00:00 19 C 10.59 g/m*3 19 C 4.8 km/h
278 26-08-2020 23:05:00 18.9 C 10.53 g/m*3 18.9 C 3.2 km/h
279 26-08-2020 23:10:00 18.9 C 10.69 g/m*3 18.9 C 0 km/h
280 26-08-2020 23:15:00 18.9 C 10.69 g/m*3 18.9 C 6.4 km/h
281 26-08-2020 23:20:00 18.8 C 10.79 g/m*3 18.8 C 0 km/h
282 26-08-2020 23:25:00 18.8 C 10.79 g/m*3 18.8 C 1.6 km/h
283 26-08-2020 23:30:00 18.7 C 10.73 g/m*3 18.7 C 0 km/h
284 26-08-2020 23:35:00 18.6 C 10.66 g/m*3 18.6 C 3.2 km/h
285 26-08-2020 23:40:00 18.6 C 10.82 g/m*3 18.6 C 3.2 km/h
286 26-08-2020 23:45:00 18.4 C 10.54 g/m*3 18.4 C 3.2 km/h
287 26-08-2020 23:50:00 18.4 C 10.7 g/m*3 18.4 C 0 km/h
288 26-08-2020 23:55:00 18.3 C 10.63 g/m*3 18.3 C 3.2 km/h

Legende:
   Min
   Max


Maximal/Minimal-Werte vom 26.08.2020 - 26.08.2020

Sensor Min Max Avg
Temp
(Aussen-T/F)
18.3 °C
26-08-2020  23:55:00
23.4 °C
26-08-2020  16:40:00
20.74 °C
Abs-Feuchte
(Aussen-T/F)
9.4 g/m*3
26-08-2020  07:20:00
12.66 g/m*3
26-08-2020  02:15:00
10.54 g/m*3
Windchill
(Aussen-T/F)
18.3 C
26-08-2020  23:55:00
23.4 C
26-08-2020  16:40:00
20.67 C

Die Daten stammen von einer Davis Vantage Pro 2 Wetter-Station und werden unter Linux mit der Software wview2wettercgi und aufbereitet. Alle Angaben erfolgen ohne Gewähr für ihre Vollständigkeit oder Richtigkeit.
Kontakt: Rainer Krienke krienke@uni-koblenz.de . Meine Webseiten an der Uni Koblenz oder privat.
Version: $Revision: 0.78 $